Left ArrowRight Arrow

Hourly Observations for June 14, 2024

Temp ( °F °C ) Dew Point ( °F °C ) Humidity (%) Winds ( mph kmh ) Pressure ( in mb ) Visibility ( mi km ) Precip ( " mm )
12:56 am 00:56 Clear 59 15 41 5 51 51 NW 8 13 29.83 1010 10 16 0.00 0.00
1:56 am 01:56 Clear 50 10 43 6.1 77 77 W 3 6 29.86 1011 10 16 0.00 0.00
2:56 am 02:56 Clear 50 10 43 6.1 77 77 SE 3 6 29.86 1011 10 16 0.00 0.00
3:56 am 03:56 Clear 50 10 42 5.6 74 74 S 5 7 29.84 1011 10 16 0.00 0.00
4:56 am 04:56 Clear 50 10 43 6.1 77 77 NW 3 6 29.83 1010 10 16 0.00 0.00
5:56 am 05:56 Sunny 52 11.1 43 6.1 71 71 WSW 3 6 29.82 1010 10 16 0.00 0.00
6:36 am 06:36 Mostly Sunny 52 11.1 44 6.7 74 74 NNW 13 20 29.90 1013 10 16 0.00 0.00
6:56 am 06:56 Partly Cloudy 53 11.7 46 7.8 77 77 NE 8 13 29.90 1012 10 16 0.00 0.00
7:09 am 07:09 Mostly Cloudy with Thunderstorms 52 11.1 45 7.2 77 77 S 5 7 29.95 1014 10 16 0.00 0.00
7:31 am 07:31 Mostly Cloudy with Light Rain 54 12.2 48 8.9 80 80 E 3 6 29.91 1013 10 16 0.01 0.13
7:56 am 07:56 Mostly Cloudy 55 12.8 48 8.9 77 77 ESE 13 20 29.85 1011 10 16 0.01 0.13
8:19 am 08:19 Sunny 59 15 48 8.9 67 67 S 10 17 29.82 1010 10 16 0.00 0.00
8:56 am 08:56 Sunny 65 18.3 49 9.4 56 56 S 10 17 29.85 1011 10 16 0.00 0.00
9:56 am 09:56 Sunny 72 22.2 47 8.3 41 41 SSW 6 9 29.83 1010 10 16 0.00 0.00
10:56 am 10:56 Sunny 74 23.3 54 12.2 50 50 N 7 11 29.82 1010 10 16 0.00 0.00
11:56 am 11:56 Sunny 79 26.1 50 10 36 36 NNE 8 13 29.81 1009 10 16 0.00 0.00
12:56 pm 12:56 Sunny 81 27.2 48 8.9 32 32 NE 5 7 29.78 1009 10 16 0.00 0.00
1:56 pm 13:56 Sunny 84 28.9 50 10 31 31 NNE 12 19 29.77 1008 10 16 0.00 0.00
2:56 pm 14:56 Sunny 85 29.4 46 7.8 26 26 VRB 6 9 29.74 1007 10 16 0.00 0.00
3:25 pm 15:25 Sunny 86 30 47 8.3 26 26 NW 8 13 29.46 998 10 16 0.00 0.00
3:56 pm 15:56 Sunny 87 30.6 47 8.3 25 25 N 9 15 29.71 1006 10 16 0.00 0.00
4:56 pm 16:56 Sunny 86 30 43 6.1 22 22 NNW 10 17 29.69 1005 10 16 0.00 0.00
5:56 pm 17:56 Sunny 78 25.6 47 8.3 33 33 N 12 19 29.71 1006 10 16 0.00 0.00
6:56 pm 18:56 Mostly Cloudy 76 24.4 47 8.3 36 36 S 23 37 29.75 1008 10 16 0.00 0.00
7:56 pm 19:56 Partly Cloudy 71 21.7 49 9.4 45 45 SE 18 30 29.75 1008 10 16 0.00 0.00
8:56 pm 20:56 Sunny 68 20 48 8.9 49 49 ESE 7 11 29.73 1007 10 16 0.00 0.00
9:56 pm 21:56 Mostly Clear 61 16.1 51 10.6 70 70 W 6 9 29.75 1007 10 16 0.00 0.00
10:21 pm 22:21 Mostly Cloudy 66 18.9 50 10 56 56 W 13 20 29.67 1005 10 16 0.00 0.00
10:56 pm 22:56 Partly Cloudy 64 17.8 49 9.4 58 58 W 9 15 29.78 1008 10 16 0.01 0.13
11:21 pm 23:21 Mostly Cloudy 62 16.7 52 11.1 70 70 SE 12 19 29.72 1007 10 16 0.01 0.25
11:56 pm 23:56 Partly Cloudy 60 15.6 53 11.7 78 78 SSE 9 15 29.76 1008 10 16 0.01 0.25

Powered by Vaisala Xweather